CARTOSAT-2A

Last updated on Wed Nov 05 2025 00:02:29 GMT+0000 (Coordinated Universal Time)

1 32783U 08021A 25308.57814735 .00001032 00000+0 14692-3 0 9992 2 32783 97.7987 359.5850 0013075 118.4280 241.8251 14.78817943945606
UTC large
Height (km)
Speed (km/s)
/
Latitude / Longitude
Inclination (degrees)
Orbital Period (minutes)
Azimuth
Elevation
Range (km)
Doppler Factor

Next 0 passes for location: London (51.5072 / 0.1276)

Sorry there are no passes over London.